This is the latest recevied weather packets stored in our database for station/object AE6BH. If no packets are shown the sender has not sent any weather packets the latest 10 day(s).
| Time | Temp. | Humidity | Pressure | Rain* | Wind** | Luminosity | Snow |
|---|---|---|---|---|---|---|---|
| 1777572312 | 21.67° C | 44% | 1012.8 hPa | 0 mm | - | 747 W/m² | - |
| 1777572009 | 21.11° C | 48% | 1012.8 hPa | 0 mm | - | 749 W/m² | - |
| 1777571703 | 21.11° C | 48% | 1012.9 hPa | 0 mm | - | 728 W/m² | - |
| 1777571401 | 21.11° C | 47% | 1013 hPa | 0 mm | - | 723 W/m² | - |
| 1777571097 | 21.11° C | 46% | 1012.9 hPa | 0 mm | - | 785 W/m² | - |
| 1777570793 | 21.11° C | 46% | 1012.8 hPa | 0 mm | - | 773 W/m² | - |
| 1777570489 | 21.11° C | 45% | 1012.9 hPa | 0 mm | - | 805 W/m² | - |
| 1777570185 | 20° C | 45% | 1013 hPa | 0 mm | - | 807 W/m² | - |
| 1777569881 | 18.89° C | 46% | 1012.9 hPa | 0 mm | - | 776 W/m² | - |
| 1777569578 | 18.89° C | 46% | 1013 hPa | 0 mm | - | 738 W/m² | - |
| 1777569274 | 18.89° C | 46% | 1013.1 hPa | 0 mm | - | 712 W/m² | - |
| 1777568970 | 19.44° C | 46% | 1013.2 hPa | 0 mm | - | 675 W/m² | - |
| 1777568667 | 18.89° C | 49% | 1013.3 hPa | 0 mm | - | 621 W/m² | - |
| 1777568365 | 19.44° C | 48% | 1013.4 hPa | 0 mm | - | 584 W/m² | - |
| 1777568062 | 19.44° C | 50% | 1013.3 hPa | 0 mm | - | 586 W/m² | - |
| 1777567758 | 18.89° C | 51% | 1013.3 hPa | 0 mm | - | 588 W/m² | - |
| 1777567454 | 18.89° C | 53% | 1013.3 hPa | 0 mm | - | 565 W/m² | - |
| 1777567153 | 17.78° C | 56% | 1013.3 hPa | 0 mm | - | 546 W/m² | - |
| 1777566850 | 17.22° C | 58% | 1013.5 hPa | 0 mm | - | 313 W/m² | - |
| 1777566548 | 16.67° C | 59% | 1013.3 hPa | 0 mm | - | 531 W/m² | - |
| 1777566245 | 16.67° C | 60% | 1013.5 hPa | 0 mm | - | 150 W/m² | - |
| 1777565942 | 17.78° C | 59% | 1013.6 hPa | 0 mm | - | 190 W/m² | - |
| 1777565637 | 17.78° C | 59% | 1013.5 hPa | 0 mm | - | 164 W/m² | - |
| 1777565334 | 17.22° C | 60% | 1013.5 hPa | 0 mm | - | 466 W/m² | - |
| 1777565030 | 16.67° C | 63% | 1013.5 hPa | 0 mm | - | 253 W/m² | - |
* Rain latest hour (hover to see other rain measurements)
** Current wind speed in m/s (hover to see current wind gust speed)